Helicity
15 63 44 50 19 -1 5 -8 166 281 178 60 90 153 137 -10 76 119 17 35 2 37 33 36 52 45 44 41 36 32 39 40 41 40 30 25 22 15 16 18 19 24 33 27 17 15 22 36 35
30 31 19 42 38 78 103 59 166 150 52 21 180 208 274 129 39 47 60 -13 -68 -4 18 15 42 51 46 46 42 40 40 40 38 41 39 31 27 21 17 20 24 23 22 34 25 18 20 27 30
54 64 41 51 37 118 13 106 80 62 61 49 82 147 126 107 111 120 107 62 45 41 40 19 50 62 60 60 62 55 49 50 48 42 40 36 30 28 24 20 18 22 22 27 27 27 37 33 28
51 37 20 45 20 36 114 154 114 49 86 63 87 178 218 164 179 129 192 92 41 24 12 40 67 67 67 67 73 65 55 52 57 54 57 47 42 38 32 25 24 17 20 27 27 34 37 36 34
79 42 36 0 9 -1 101 203 223 224 227 132 153 174 215 160 133 123 147 124 34 39 5 34 54 57 54 58 63 58 56 56 51 57 63 66 61 58 55 46 41 34 26 23 26 37 44 44 34
76 54 36 85 16 162 137 157 162 201 197 112 103 129 93 101 74 94 75 91 71 8 34 26 44 55 56 57 60 53 51 48 38 43 51 57 59 59 62 61 61 56 47 41 34 34 39 41 40
82 105 38 65 -9 133 196 164 173 278 224 167 98 182 103 132 67 48 45 28 69 204 237 229 221 184 120 69 70 71 60 59 51 48 50 51 61 59 58 65 68 73 75 66 58 49 51 56 41
85 79 -16 -20 15 175 176 196 107 152 122 80 101 142 175 169 165 95 178 194 225 269 266 264 252 232 242 196 87 63 56 57 54 48 46 49 49 57 61 62 62 63 64 72 75 68 57 59 60
83 56 37 37 3 196 180 175 132 143 72 114 82 105 141 174 205 369 391 450 334 334 274 284 299 261 260 229 241 119 68 40 51 70 73 75 90 74 60 69 69 65 69 71 69 70 72 81 71
77 63 119 6 145 106 104 226 227 112 85 72 114 81 152 236 300 355 412 439 391 346 253 168 165 205 210 191 212 232 193 126 94 75 72 89 94 82 75 81 88 88 91 88 84 67 56 68 101
69 83 47 -11 60 210 197 155 174 162 164 154 206 149 239 250 261 308 342 358 276 192 148 88 70 136 179 150 130 155 201 230 199 168 108 102 107 89 87 89 100 102 99 114 104 100 102 110 136
84 22 37 -25 -47 110 202 171 209 207 202 129 189 281 316 324 372 381 325 213 139 103 106 134 123 161 193 127 134 143 144 209 261 305 313 276 203 142 165 157 116 104 97 99 93 115 120 131 153
99 35 37 89 20 20 117 193 197 191 175 161 199 336 391 408 438 339 175 153 108 104 106 141 128 184 206 179 180 187 178 144 188 271 310 297 216 188 181 176 197 144 120 122 78 61 59 60 85
113 84 62 125 91 69 87 100 122 91 148 169 335 348 396 358 314 228 146 91 80 76 76 102 116 149 145 139 149 156 175 160 157 157 210 270 272 221 207 211 204 168 115 105 111 109 70 41 49
123 140 77 92 130 106 121 117 95 71 215 206 342 373 390 340 316 238 136 114 62 67 81 111 131 141 170 146 119 137 149 143 172 182 171 160 226 320 286 233 287 242 195 135 116 117 109 99 118
165 170 80 42 75 136 222 111 60 178 266 149 354 404 441 387 335 261 203 170 119 56 46 66 119 151 160 182 120 107 138 135 132 150 161 209 237 276 298 298 250 218 171 195 226 199 173 135 114
159 187 127 77 62 318 289 107 130 245 197 88 346 383 427 422 368 289 210 162 118 75 52 41 75 120 137 153 169 133 114 123 158 147 155 126 174 215 220 211 205 201 168 122 130 140 133 117 114
239 145 102 81 143 328 241 113 141 143 124 97 367 360 451 482 319 227 163 184 157 141 108 82 78 132 149 149 160 142 114 95 87 114 137 148 160 203 220 158 222 145 153 134 146 144 133 110 88
103 81 147 75 69 336 200 116 81 139 163 231 426 525 529 489 274 200 146 186 144 150 149 113 99 121 154 179 176 177 171 87 72 78 80 98 109 162 196 184 172 159 115 139 130 138 178 136 137
71 51 93 59 57 142 92 112 129 147 111 233 427 564 530 496 342 233 270 219 142 100 96 92 100 92 127 129 145 132 178 172 175 116 164 99 81 134 161 219 231 219 186 219 154 145 108 94 146
98 139 139 149 27 64 99 229 195 174 194 378 403 414 469 433 349 356 299 165 98 73 91 87 80 76 75 81 102 141 154 158 154 142 166 147 150 134 153 159 168 184 201 163 147 141 146 138 91
138 153 145 133 156 147 151 137 190 146 143 470 495 592 647 585 507 417 263 156 121 94 99 95 75 75 78 78 103 124 97 98 65 67 91 122 114 82 82 119 134 125 119 165 169 126 113 98 135
165 163 188 189 216 206 279 235 174 172 276 453 575 627 565 433 432 374 239 189 160 134 117 110 88 93 86 83 85 91 101 91 72 75 89 119 110 94 89 110 140 131 118 108 110 135 143 116 109
136 212 251 273 276 261 306 230 83 194 194 474 538 571 573 442 334 239 218 204 152 153 127 120 99 98 78 73 84 97 104 95 75 84 79 67 60 56 74 92 97 112 133 142 125 104 93 92 81
203 359 399 367 399 306 208 188 211 143 91 303 520 527 470 382 282 238 254 209 209 182 152 128 119 109 101 87 74 77 84 84 73 74 71 68 59 53 65 76 87 82 99 107 120 122 90 92 95
320 395 473 360 305 195 120 250 202 153 199 251 324 435 406 358 242 200 197 245 246 205 175 191 129 105 96 78 56 53 60 55 58 70 67 61 64 62 71 84 76 84 83 88 104 89 59 74 113
358 360 368 338 206 251 286 372 241 274 367 449 510 503 430 347 258 275 289 278 258 209 199 199 164 121 104 82 59 55 54 70 68 74 54 45 50 59 71 66 76 98 121 112 97 89 87 78 103
300 321 337 339 384 405 405 352 372 355 375 409 479 487 415 343 279 276 267 308 251 203 194 189 174 153 121 100 84 69 72 77 80 69 65 59 52 66 47 53 68 100 138 146 63 80 86 83 97
343 258 354 292 338 426 399 353 253 230 269 351 343 312 303 298 254 243 265 290 240 207 205 193 186 154 132 116 79 65 72 70 71 70 62 59 61 73 73 53 53 73 116 138 77 63 64 134 107
340 209 272 442 421 414 406 417 201 110 131 184 224 280 310 264 205 180 271 295 228 210 208 209 179 143 92 67 75 106 150 146 119 109 115 108 129 86 93 58 52 73 111 119 71 51 35 54 86
Wind_Speed
51 44 34 33 35 31 36 31 31 35 33 37 38 33 34 31 31 25 30 28 25 22 20 21 23 26 27 27 27 26 26 25 26 26 27 27 29 29 29 28 28 28 28 27 28 28 29 28 28
42 45 29 29 31 36 47 21 33 37 33 31 33 33 35 34 28 29 26 25 27 25 21 21 22 24 27 27 25 24 24 24 23 23 23 23 24 25 24 24 24 24 24 24 25 26 27 27 27
39 24 29 25 27 33 33 32 32 32 36 31 26 36 34 27 32 24 28 26 28 29 25 24 23 24 26 26 25 24 23 22 21 20 20 20 20 20 20 19 19 19 20 20 21 22 23 23 24
33 28 25 28 25 35 22 29 35 31 35 31 26 35 33 33 28 28 30 29 28 29 29 26 24 24 25 26 26 25 23 20 18 17 17 17 16 16 17 16 15 15 16 16 16 17 18 18 19
32 24 27 23 24 31 24 27 32 30 34 31 27 22 30 33 30 28 28 30 28 29 31 28 26 26 26 26 26 26 24 22 18 15 13 13 13 13 13 13 12 12 11 12 11 11 11 12 13
29 24 28 30 37 17 21 25 26 31 27 31 29 22 28 29 29 27 27 28 29 28 29 30 30 30 27 27 27 27 28 28 26 23 20 20 18 16 13 11 9 10 10 10 9 7 6 6 6
18 32 33 44 47 19 17 21 26 32 24 25 23 22 25 29 30 27 26 28 30 32 35 36 39 39 37 33 28 27 27 26 27 28 27 26 26 25 24 22 17 12 8 8 7 6 5 7 6
24 27 41 36 40 20 17 24 24 29 28 24 23 21 21 28 32 27 29 32 34 36 40 43 44 45 47 48 33 27 26 25 25 27 29 30 33 31 29 26 24 20 19 17 15 13 12 11 11
25 27 26 35 46 15 17 18 24 24 23 28 22 21 20 25 25 30 33 39 40 43 46 49 52 53 53 50 51 39 35 27 23 24 26 29 33 37 35 27 21 19 19 21 20 20 19 18 18
16 17 21 26 35 21 20 21 22 23 18 20 22 23 23 25 26 32 37 42 46 49 51 53 55 57 56 53 52 50 48 47 41 31 27 30 32 34 35 30 20 18 18 19 21 22 24 26 32
19 16 19 29 27 32 24 21 23 20 25 20 18 20 23 27 30 34 38 43 47 51 55 58 59 59 57 56 53 51 50 51 49 46 43 35 37 39 42 52 49 38 34 40 37 33 38 39 39
32 23 32 20 24 29 32 30 25 23 21 18 19 21 22 29 34 38 42 48 53 55 57 58 58 59 58 55 54 52 51 51 50 49 47 41 39 40 43 54 54 54 48 48 49 48 49 48 49
31 30 37 30 21 25 34 34 30 26 20 18 21 20 25 30 33 40 44 48 50 53 55 57 57 58 58 55 56 55 53 50 49 50 48 46 44 43 46 45 49 52 52 54 54 58 60 56 50
39 39 42 31 27 29 30 32 29 26 18 17 19 22 26 30 34 41 48 50 48 49 52 54 56 57 56 53 51 53 52 52 51 51 51 51 47 47 48 51 55 54 55 55 56 58 61 65 64
48 50 49 46 35 34 30 39 33 31 11 17 18 20 23 28 35 42 45 47 45 47 51 54 56 56 56 53 50 51 50 49 51 53 53 53 54 56 56 58 60 57 59 61 62 62 61 65 65
44 49 55 39 36 37 28 48 39 16 13 17 16 19 21 28 35 40 45 44 46 48 48 49 54 54 54 55 49 50 50 50 50 53 54 56 58 59 57 57 59 61 61 61 65 67 68 67 66
40 52 52 57 39 31 28 42 25 6 12 15 16 15 19 26 35 41 43 43 46 46 47 48 52 53 53 53 52 49 49 52 53 54 56 59 60 60 58 60 62 63 64 64 67 69 69 72 72
52 50 51 55 39 24 28 29 16 8 12 19 15 14 18 25 31 34 36 38 41 45 47 49 52 54 53 53 53 52 48 50 52 54 56 59 60 62 63 61 64 64 65 66 67 70 69 70 73
52 55 52 56 33 28 28 29 31 18 22 27 21 20 19 27 25 31 33 34 40 46 49 51 53 54 55 56 56 54 56 50 51 54 57 59 59 59 61 61 63 65 64 67 66 69 71 66 72
47 56 61 60 38 27 34 39 36 32 49 34 24 17 20 20 23 27 29 35 40 44 47 49 50 53 55 54 55 50 53 51 54 58 62 62 59 59 59 62 64 63 65 66 66 67 68 64 68
49 48 52 53 58 51 44 50 43 46 49 32 21 18 19 20 21 24 29 35 38 40 43 44 44 51 53 54 54 53 52 55 61 64 65 63 62 61 63 64 65 66 66 66 67 66 66 67 63
59 46 53 58 59 67 52 90 63 50 41 27 20 17 16 16 18 23 27 33 35 36 38 41 42 48 52 55 56 57 56 59 60 63 62 63 63 66 67 69 68 67 68 69 70 69 70 70 71
56 46 48 53 62 62 59 74 62 48 46 31 27 22 19 15 18 21 27 29 30 32 36 40 41 47 51 54 56 57 58 59 59 62 63 63 63 64 68 68 68 68 67 68 70 71 70 68 69
47 48 49 53 56 77 55 56 83 52 49 37 27 22 15 13 14 19 24 23 26 29 33 38 40 46 50 53 55 57 58 60 60 62 61 62 62 63 67 66 66 67 67 67 68 69 66 65 64
44 45 61 69 68 81 48 56 63 53 41 30 27 19 14 10 15 21 20 20 21 27 32 36 39 46 50 52 54 56 56 56 58 60 61 62 62 62 65 65 66 66 66 64 62 61 63 63 63
51 48 62 74 73 75 50 64 63 42 26 13 16 14 11 13 19 19 14 17 20 24 29 36 38 44 48 50 52 53 54 54 56 58 59 59 60 61 62 63 63 63 63 61 58 58 60 59 56
58 68 54 70 67 73 58 42 37 25 20 11 14 16 18 17 17 15 16 18 19 23 28 33 37 41 44 47 48 50 51 53 55 57 56 57 58 57 60 60 61 60 60 61 55 57 55 53 52
62 50 62 60 78 82 67 59 55 32 24 17 20 22 20 19 18 19 21 20 21 22 25 30 34 39 41 44 45 47 49 50 52 53 55 56 56 57 57 56 58 57 58 60 55 53 52 49 48
60 64 55 55 63 74 79 69 44 34 26 25 25 24 22 21 20 21 22 19 20 21 26 30 33 35 38 41 41 44 46 47 49 49 51 51 54 57 55 54 56 54 56 57 57 53 52 51 46
58 66 62 69 72 67 69 66 32 27 23 26 29 27 23 20 18 18 16 17 16 20 25 30 31 32 34 35 38 42 45 46 49 49 51 52 55 54 54 52 54 53 53 55 57 53 52 49 45
Wind_Direction
333 278 7 16 2 2 345 353 11 0 355 8 5 16 20 6 352 348 352 47 49 52 55 44 44 48 48 54 57 52 45 47 48 49 45 40 41 43 45 46 47 49 52 50 45 43 44 54 61
351 338 21 16 2 346 336 19 6 14 19 24 15 18 5 3 26 16 18 40 37 41 60 46 38 35 37 38 40 36 37 45 42 37 42 41 41 40 42 47 49 48 48 47 42 38 36 41 49
351 28 9 20 3 344 344 15 31 24 7 1 8 356 351 5 6 7 16 23 32 39 39 33 33 24 22 22 20 19 28 31 28 34 31 31 31 34 37 42 43 46 42 49 45 41 41 43 40
356 9 12 353 346 346 15 22 19 23 6 17 19 358 11 16 9 15 15 25 29 24 16 21 17 11 7 6 7 7 14 18 20 23 21 16 18 18 20 25 32 35 36 41 47 47 46 52 53
352 4 349 356 340 336 18 22 13 14 8 13 23 14 7 11 15 7 7 13 19 13 15 14 11 7 5 3 1 359 3 6 12 18 20 13 3 4 4 6 9 15 18 17 26 32 41 52 54
349 357 337 337 340 12 16 33 18 10 4 33 35 13 359 3 14 18 17 5 2 5 2 7 8 5 2 0 357 353 351 350 351 351 349 340 340 340 344 346 347 346 345 347 352 359 10 14 33
334 330 320 320 327 341 18 33 14 2 19 355 24 23 28 12 10 34 23 11 3 359 358 348 340 340 340 353 354 351 348 348 346 340 337 332 328 323 320 319 318 316 307 305 306 296 290 308 310
340 330 313 320 332 349 33 11 28 11 3 1 359 7 10 350 356 26 21 11 3 351 343 339 339 337 336 324 336 349 350 349 342 335 331 328 322 321 319 318 314 309 303 296 288 283 280 275 274
333 325 329 331 330 349 23 17 27 22 19 4 9 31 27 15 352 6 0 350 349 342 339 331 324 322 325 329 331 329 334 341 341 332 326 322 319 316 316 318 315 305 296 291 284 278 272 268 266
326 318 339 342 349 359 4 20 18 13 15 15 25 23 11 9 355 343 343 339 337 329 328 328 324 320 320 324 326 327 329 324 322 327 326 320 318 316 316 318 312 304 296 283 280 276 270 278 290
304 290 310 329 333 337 340 347 7 358 343 358 2 8 3 358 351 342 337 336 334 330 324 324 323 321 320 322 325 326 327 327 327 322 318 322 319 314 312 307 311 315 311 307 304 299 296 291 288
294 296 308 327 329 316 323 330 340 346 339 358 1 350 353 347 345 339 335 330 328 327 326 324 326 324 321 324 325 325 326 327 326 328 322 324 325 322 318 310 312 311 312 309 306 303 301 295 289
294 294 298 312 319 311 313 315 318 321 331 343 341 339 336 340 342 340 339 337 336 331 330 328 328 327 327 327 327 326 325 328 329 329 329 326 322 318 321 323 321 319 318 313 311 308 304 303 298
303 307 300 310 306 307 304 309 313 316 308 326 329 329 330 335 340 338 336 336 337 336 335 333 331 328 329 331 331 330 327 326 327 327 327 325 323 319 319 319 318 316 315 315 313 310 308 305 304
299 299 298 292 302 305 309 302 298 301 295 312 318 326 331 337 341 339 340 343 344 342 339 335 333 331 333 334 337 335 335 334 329 326 325 326 323 319 316 313 313 314 314 313 311 309 307 306 305
302 298 293 298 286 292 298 299 304 276 287 305 310 318 329 339 340 338 341 343 343 344 345 344 340 337 337 336 337 340 338 337 336 333 329 325 324 322 319 315 313 313 313 314 311 309 306 306 306
294 293 294 296 285 283 287 307 325 255 280 295 298 312 325 336 340 337 338 341 342 346 347 347 344 342 343 342 343 342 344 340 336 334 332 330 328 325 321 316 315 314 311 311 309 308 309 304 303
287 287 293 292 299 274 278 294 313 292 285 293 287 308 319 328 336 342 345 346 346 346 346 347 346 343 342 343 342 342 344 347 345 341 338 333 331 328 323 319 317 317 313 310 310 307 308 305 303
286 285 288 302 302 272 271 281 288 288 295 296 282 292 317 325 340 346 348 350 346 343 343 345 346 346 344 342 340 340 339 344 347 346 344 340 336 333 329 324 320 317 316 313 312 308 306 305 309
279 281 284 290 303 283 282 281 287 292 291 292 269 274 301 321 336 349 353 347 346 344 344 347 349 349 347 346 344 344 344 346 345 343 341 342 341 339 334 329 323 321 315 313 312 311 307 305 309
275 276 284 285 284 291 297 290 288 296 300 297 267 275 296 308 322 339 343 343 347 350 350 352 357 355 355 354 351 347 344 342 338 338 337 340 342 340 334 329 324 319 315 313 311 309 309 304 305
278 281 286 286 287 283 290 287 290 298 291 273 260 269 291 319 336 338 340 343 348 353 357 357 1 359 357 356 354 352 348 343 342 340 340 337 337 333 330 325 321 317 314 311 309 307 303 301 299
279 291 288 288 286 289 283 287 296 294 291 267 260 264 279 302 317 330 336 343 350 352 353 355 360 358 357 357 355 352 349 347 345 343 343 343 339 336 333 329 325 321 318 314 310 307 305 303 299
283 290 289 291 291 281 285 286 292 287 281 268 259 262 272 296 318 332 339 347 348 352 352 352 357 357 357 357 356 354 351 347 346 345 342 340 338 338 338 336 333 327 322 319 314 309 307 306 303
266 276 281 283 280 282 289 284 279 298 290 263 244 248 251 270 306 321 330 339 347 348 347 349 353 353 355 356 357 355 354 353 350 347 343 340 339 340 338 338 337 335 330 329 324 316 311 311 305
262 260 270 279 282 290 285 289 293 298 293 236 224 231 251 274 306 316 331 339 343 345 344 346 351 351 354 356 357 358 358 355 352 347 345 344 343 343 341 339 339 338 337 336 335 325 316 317 312
268 260 266 281 286 289 290 298 314 318 309 257 247 245 264 276 297 311 327 334 339 341 342 344 347 351 354 355 357 358 0 357 353 348 347 348 348 349 348 348 343 341 340 342 342 335 328 324 320
258 273 269 267 277 277 283 284 287 285 286 268 260 264 269 281 291 301 309 323 334 340 344 344 347 350 354 355 358 358 359 358 355 352 350 351 350 352 352 354 352 347 346 344 349 348 339 338 336
254 259 271 272 269 279 283 287 298 273 264 267 266 262 263 270 281 295 303 315 329 337 338 340 346 351 353 356 359 359 359 357 356 355 353 354 353 352 359 0 356 355 352 350 356 352 346 348 339
251 253 258 267 270 269 280 282 304 298 280 276 275 266 266 271 281 294 297 312 332 335 334 336 344 350 353 357 358 358 358 357 354 354 355 356 354 356 0 0 356 355 353 353 354 356 352 349 341